CW1631 Weather Reports


Display with metric or nautical units.
time (UTC)temp
F
wind
direction
speed
MPH
gust
MPH
rain 1hr
in
rain 24hr
in
rain mn
in
humidity
%
barometer
mb
20260831131431 61 284 1.0 1.0 0.00 0.00 0.00 99 1021.2
20260831130927 60 16 0.0 1.0 0.00 0.00 0.00 99 1021.1
20260831130422 60 358 1.0 1.0 0.00 0.00 0.00 99 1020.8
20260831125921 60 40 2.0 2.0 0.00 0.00 0.00 99 1020.9
20260831125416 60 54 0.0 0.0 0.00 0.00 0.00 99 1021.0
20260831124912 60 14 1.0 2.0 0.00 0.00 0.00 99 1021.0
20260831124408 60 241 1.0 1.0 0.00 0.00 0.00 99 1021.2
20260831123903 60 227 1.0 1.0 0.00 0.00 0.00 99 1021.1
20260831123401 60 278 0.0 0.0 0.00 0.00 0.00 99 1021.1
20260831122856 59 271 0.0 0.0 0.00 0.00 0.00 99 1021.2
20260831122351 60 265 0.0 0.0 0.00 0.00 0.00 99 1021.1
20260831121846 59 266 0.0 0.0 0.00 0.00 0.00 99 1021.1
20260831121343 59 272 1.0 1.0 0.00 0.00 0.00 99 1021.2
20260831120838 59 266 0.0 0.0 0.00 0.00 0.00 99 1021.4
20260831120332 59 262 0.0 0.0 0.00 0.00 0.00 99 1021.3
20260831115827 59 272 0.0 0.0 0.00 0.00 0.00 99 1021.2
20260831115324 59 273 0.0 0.0 0.00 0.00 0.00 99 1021.3
20260831114823 59 323 1.0 1.0 0.00 0.00 0.00 99 1021.3
20260831114322 59 282 0.0 0.0 0.00 0.00 0.00 99 1021.0
20260831113818 59 11 2.0 2.0 0.00 0.00 0.00 99 1021.0
20260831113317 59 293 1.0 1.0 0.00 0.00 0.00 99 1021.0
20260831112812 59 29 1.0 1.0 0.00 0.00 0.00 99 1021.1
20260831112307 58 342 3.0 3.0 0.00 0.00 0.00 99 1021.1
20260831111802 58 101 1.0 2.0 0.00 0.00 0.00 99 1021.1
20260831111259 59 89 2.0 2.0 0.00 0.00 0.00 99 1020.9
20260831110754 58 51 1.0 2.0 0.00 0.00 0.00 99 1020.9
20260831110249 58 281 0.0 0.0 0.00 0.00 0.00 99 1021.0
20260831105747 58 308 0.0 0.0 0.00 0.00 0.00 99 1020.8
20260831105243 58 281 0.0 0.0 0.00 0.00 0.00 99 1021.0
20260831104738 58 267 0.0 0.0 0.00 0.00 0.00 99 1020.8
20260831104235 58 292 0.0 0.0 0.00 0.00 0.00 99 1020.6
20260831103735 58 279 0.0 0.0 0.00 0.00 0.00 99 1020.6
20260831103230 58 266 0.0 0.0 0.00 0.00 0.00 99 1020.6
20260831102730 58 273 0.0 0.0 0.00 0.00 0.00 99 1020.3
20260831102225 58 301 0.0 0.0 0.00 0.00 0.00 99 1020.5
20260831101720 58 290 0.0 0.0 0.00 0.00 0.00 99 1020.6
20260831101216 58 263 0.0 0.0 0.00 0.00 0.00 99 1020.6
20260831100712 58 260 0.0 0.0 0.00 0.00 0.00 99 1020.4
20260831100208 58 262 0.0 0.0 0.00 0.00 0.00 99 1020.5
20260831095706 58 260 0.0 0.0 0.00 0.00 0.00 99 1020.3
20260831095201 58 260 0.0 0.0 0.00 0.00 0.00 99 1020.3
20260831094656 58 268 0.0 0.0 0.00 0.00 0.00 99 1020.5
20260831094152 58 272 0.0 0.0 0.00 0.00 0.00 99 1020.5
20260831093648 58 265 0.0 0.0 0.00 0.00 0.00 99 1020.5
20260831093143 58 268 0.0 0.0 0.00 0.00 0.00 99 1020.6
20260831092640 58 274 0.0 0.0 0.00 0.00 0.00 99 1020.3
20260831092135 58 306 1.0 1.0 0.00 0.00 0.00 99 1020.6
20260831091634 58 286 1.0 1.0 0.00 0.00 0.00 99 1020.7
20260831091130 58 310 1.0 1.0 0.00 0.00 0.00 99 1020.5
20260831090625 58 280 1.0 1.0 0.00 0.00 0.00 99 1020.7
20260831090121 58 354 1.0 1.0 0.00 0.00 0.00 99 1020.5
20260831085616 58 300 1.0 1.0 0.00 0.00 0.00 98 1020.5
20260831085112 58 289 0.0 0.0 0.00 0.00 0.00 98 1020.4
20260831084608 58 265 0.0 0.0 0.00 0.00 0.00 98 1020.4
20260831084104 58 265 0.0 0.0 0.00 0.00 0.00 98 1020.3
20260831083559 58 253 0.0 0.0 0.00 0.00 0.00 98 1020.4
20260831083054 58 321 0.0 1.0 0.00 0.00 0.00 98 1020.6
20260831082553 58 27 1.0 1.0 0.00 0.00 0.00 98 1020.5
20260831082048 58 358 0.0 0.0 0.00 0.00 0.00 98 1020.3
20260831081544 59 89 1.0 1.0 0.00 0.00 0.00 98 1020.4
20260831081040 59 280 0.0 0.0 0.00 0.00 0.00 98 1020.3
20260831080540 59 54 1.0 1.0 0.00 0.00 0.00 98 1020.3
20260831080036 59 82 2.0 2.0 0.00 0.00 0.00 98 1020.4
20260831075531 59 280 0.0 0.0 0.00 0.00 0.00 98 1020.5
20260831075026 59 281 0.0 0.0 0.00 0.00 0.00 98 1020.4
20260831074520 58 287 0.0 0.0 0.00 0.00 0.00 98 1020.2
20260831074020 58 271 0.0 0.0 0.00 0.00 0.00 98 1020.3
20260831073515 58 305 0.0 0.0 0.00 0.00 0.00 98 1019.9
20260831073014 58 292 0.0 0.0 0.00 0.00 0.00 98 1019.9
20260831072510 58 276 0.0 0.0 0.00 0.00 0.00 98 1020.4
20260831072006 58 292 0.0 0.0 0.00 0.00 0.00 98 1020.0
20260831071505 59 268 0.0 0.0 0.00 0.00 0.00 98 1020.2
20260831071001 59 272 0.0 0.0 0.00 0.00 0.00 98 1020.4
20260831070458 59 256 0.0 0.0 0.00 0.00 0.00 98 1020.3
20260831065953 59 281 0.0 0.0 0.00 0.00 0.00 98 1020.4
20260831065451 59 328 0.0 0.0 0.00 0.00 0.00 98 1020.4
20260831064945 59 354 0.0 0.0 0.00 0.00 0.00 98 1020.2
20260831064440 59 262 0.0 0.0 0.00 0.00 0.00 98 1020.4
20260831063936 59 249 0.0 0.0 0.00 0.00 0.00 98 1020.3
20260831063431 59 264 0.0 0.0 0.00 0.00 0.00 98 1020.2
20260831062925 59 288 0.0 0.0 0.00 0.00 0.00 98 1020.3
20260831062422 59 266 0.0 0.0 0.00 0.00 0.00 98 1020.2
20260831061920 59 298 0.0 0.0 0.00 0.00 0.00 98 1020.5
20260831061419 59 284 0.0 0.0 0.00 0.00 0.00 97 1020.2
20260831060915 59 180 1.0 2.0 0.00 0.00 0.00 98 1020.6
20260831060410 59 155 1.0 1.0 0.00 0.00 0.00 98 1020.8
20260831055909 59 250 0.0 0.0 0.00 0.00 0.00 98 1020.6
20260831055404 59 264 0.0 0.0 0.00 0.00 0.00 97 1020.8
20260831054900 60 266 0.0 0.0 0.00 0.00 0.00 97 1020.7
20260831054354 60 258 0.0 0.0 0.00 0.00 0.00 97 1020.7
20260831053853 60 314 0.0 0.0 0.00 0.00 0.00 97 1021.0
20260831053352 60 49 1.0 1.0 0.00 0.00 0.00 97 1020.7
20260831052846 60 44 3.0 3.0 0.00 0.00 0.00 97 1020.8
20260831052341 60 56 3.0 3.0 0.00 0.00 0.00 97 1020.7
20260831051839 60 47 0.0 0.0 0.00 0.00 0.00 97 1021.0
20260831051337 60 323 0.0 0.0 0.00 0.00 0.00 96 1020.8
20260831050832 61 216 0.0 0.0 0.00 0.00 0.00 97 1020.8
20260831050332 60 250 0.0 0.0 0.00 0.00 0.00 97 1020.7
20260831045826 61 268 0.0 0.0 0.00 0.00 0.00 97 1020.9
20260831045320 60 265 0.0 0.0 0.00 0.00 0.00 97 1020.8
20260831044815 61 253 0.0 0.0 0.00 0.00 0.00 96 1020.8
20260831044310 61 260 0.0 0.0 0.00 0.00 0.00 96 1020.6
20260831043806 62 274 0.0 0.0 0.00 0.00 0.00 96 1020.6
20260831043305 62 319 0.0 0.0 0.00 0.00 0.00 96 1020.7
20260831042800 62 328 0.0 0.0 0.00 0.00 0.00 96 1020.8
20260831042255 62 57 0.0 0.0 0.00 0.00 0.00 96 1020.6
20260831041750 62 327 0.0 0.0 0.00 0.00 0.00 95 1020.5
20260831041249 62 290 0.0 0.0 0.00 0.00 0.00 95 1020.6
20260831040744 63 270 0.0 0.0 0.00 0.00 0.00 95 1020.6
20260831040243 63 257 0.0 0.0 0.00 0.00 0.00 95 1020.6
20260831035737 63 297 0.0 0.0 0.00 0.00 0.00 95 1020.3
20260831035236 63 271 0.0 0.0 0.00 0.00 0.00 95 1020.5
20260831034735 63 273 0.0 0.0 0.00 0.00 0.00 94 1020.7
20260831034231 63 264 0.0 0.0 0.00 0.00 0.00 94 1020.5
20260831033726 63 255 0.0 0.0 0.00 0.00 0.00 94 1020.4
20260831033226 63 246 0.0 0.0 0.00 0.00 0.00 94 1020.7
20260831032721 63 261 0.0 0.0 0.00 0.00 0.00 94 1020.6
20260831032216 63 262 0.0 0.0 0.00 0.00 0.00 94 1020.8
20260831031711 63 264 0.0 0.0 0.00 0.00 0.00 94 1020.8
20260831031205 63 298 0.0 0.0 0.00 0.00 0.00 94 1020.7
20260831030704 64 273 0.0 0.0 0.00 0.00 0.00 94 1020.7
20260831030203 63 267 0.0 0.0 0.00 0.00 0.00 94 1020.8
20260831025702 64 262 0.0 0.0 0.00 0.00 0.00 93 1020.5
20260831025157 64 271 0.0 0.0 0.00 0.00 0.00 93 1020.7
20260831024653 64 313 0.0 1.0 0.00 0.00 0.00 93 1020.8
20260831024151 64 336 1.0 1.0 0.00 0.00 0.00 92 1020.6
20260831023650 64 257 0.0 0.0 0.00 0.00 0.00 92 1020.8
20260831023148 64 268 0.0 0.0 0.00 0.00 0.00 91 1020.8
20260831022645 64 255 0.0 0.0 0.00 0.00 0.00 91 1020.8
20260831022140 64 267 0.0 0.0 0.00 0.00 0.00 91 1020.6
20260831021638 65 278 0.0 1.0 0.00 0.00 0.00 90 1020.8
20260831021134 65 245 0.0 0.0 0.00 0.00 0.00 90 1020.8
20260831020630 65 123 1.0 1.0 0.00 0.00 0.00 90 1020.7
20260831020119 65 21 2.0 2.0 0.00 0.00 0.00 89 1020.8
20260831015614 65 45 1.0 1.0 0.00 0.00 0.00 90 1020.7
20260831015108 65 35 3.0 3.0 0.00 0.00 0.00 90 1020.3
20260831014603 65 54 2.0 2.0 0.00 0.00 0.00 89 1020.3
20260831014059 65 69 2.0 2.0 0.00 0.00 0.00 88 1020.5
20260831013555 66 30 2.0 2.0 0.00 0.00 0.00 86 1020.4
20260831013054 66 252 0.0 0.0 0.00 0.00 0.00 85 1020.5
20260831012549 66 211 2.0 2.0 0.00 0.00 0.00 85 1020.7
20260831012044 66 239 1.0 1.0 0.00 0.00 0.00 85 1020.6
20260831011543 67 258 0.0 0.0 0.00 0.00 0.00 85 1020.5
20260831011039 67 265 0.0 0.0 0.00 0.00 0.00 84 1020.5
20260831010534 67 264 1.0 1.0 0.00 0.00 0.00 83 1020.4
20260831010030 67 232 1.0 1.0 0.00 0.00 0.00 83 1020.3
20260831005525 67 225 1.0 1.0 0.00 0.00 0.00 83 1020.3
20260831005024 67 234 2.0 2.0 0.00 0.00 0.00 83 1020.0
20260831004521 67 224 2.0 2.0 0.00 0.00 0.00 83 1019.9
20260831004016 67 224 2.0 2.0 0.00 0.00 0.00 83 1019.9
20260831003512 67 229 2.0 2.0 0.00 0.00 0.00 83 1020.0
20260831003008 68 241 1.0 2.0 0.00 0.00 0.00 83 1019.6
20260831002506 68 264 1.0 1.0 0.00 0.00 0.00 83 1019.6
20260831002001 68 262 0.0 0.0 0.00 0.00 0.00 83 1019.5
20260831001456 68 260 2.0 2.0 0.00 0.00 0.00 83 1019.4
20260831000953 67 247 2.0 2.0 0.00 0.00 0.00 84 1019.4
20260831000449 67 244 0.0 0.0 0.00 0.00 0.00 86 1019.3
20260830235947 67 251 0.0 0.0 0.00 0.00 0.00 88 1019.3
20260830235442 66 227 1.0 1.0 0.00 0.00 0.00 90 1019.3
20260830234938 66 262 0.0 0.0 0.00 0.00 0.00 91 1019.3
20260830234433 66 256 1.0 1.0 0.00 0.00 0.00 92 1019.2
20260830233928 66 218 0.0 1.0 0.00 0.00 0.00 92 1019.1
20260830233424 66 268 0.0 0.0 0.00 0.00 0.00 92 1019.0
20260830232919 67 251 0.0 0.0 0.00 0.00 0.00 91 1019.1
20260830232415 67 267 0.0 0.0 0.00 0.00 0.00 91 1019.1
20260830231912 67 248 0.0 1.0 0.00 0.00 0.00 90 1019.1
20260830231407 67 271 0.0 0.0 0.00 0.00 0.00 90 1019.1
20260830230906 68 256 0.0 0.0 0.00 0.00 0.00 89 1019.0
20260830230401 68 250 0.0 0.0 0.00 0.00 0.00 88 1019.2
20260830225900 68 250 0.0 0.0 0.00 0.00 0.00 87 1019.3
20260830225356 68 271 0.0 1.0 0.00 0.00 0.00 86 1019.2
20260830224850 68 280 0.0 0.0 0.00 0.00 0.00 85 1019.0
20260830224349 68 268 1.0 1.0 0.00 0.00 0.00 85 1019.0
20260830223847 68 271 1.0 1.0 0.00 0.00 0.00 84 1019.2
20260830223343 68 262 0.0 1.0 0.00 0.00 0.00 85 1019.2
20260830222842 68 267 0.0 0.0 0.00 0.00 0.00 85 1019.2
20260830222337 68 256 0.0 0.0 0.00 0.00 0.00 85 1018.9
20260830221832 69 268 0.0 0.0 0.00 0.00 0.00 84 1019.0
20260830221329 69 268 0.0 0.0 0.00 0.00 0.00 84 1019.1
20260830220830 69 229 2.0 2.0 0.00 0.00 0.00 83 1018.9
20260830220324 69 257 0.0 0.0 0.00 0.00 0.00 82 1018.8
20260830215822 69 266 1.0 1.0 0.00 0.00 0.00 82 1019.1
20260830215317 69 277 0.0 1.0 0.00 0.00 0.00 80 1019.0
20260830214812 69 236 1.0 1.0 0.00 0.00 0.00 80 1018.8
20260830214307 69 264 0.0 0.0 0.00 0.00 0.00 82 1019.1
20260830213806 69 268 0.0 0.0 0.00 0.00 0.00 82 1018.9
20260830213301 69 262 0.0 0.0 0.00 0.00 0.00 83 1019.0
20260830212757 69 263 0.0 1.0 0.00 0.00 0.00 84 1019.0
20260830212253 69 240 0.0 1.0 0.00 0.00 0.00 85 1019.0
20260830211752 69 203 2.0 2.0 0.00 0.00 0.00 83 1019.1
20260830211251 70 226 0.0 1.0 0.00 0.00 0.00 81 1019.3
20260830210748 70 265 1.0 1.0 0.00 0.00 0.00 80 1019.0
20260830210246 70 288 1.0 1.0 0.00 0.00 0.00 81 1019.2
20260830205744 70 277 0.0 0.0 0.00 0.00 0.00 80 1019.0
20260830205239 70 267 0.0 0.0 0.00 0.00 0.00 79 1019.0
20260830204734 69 211 1.0 1.0 0.00 0.00 0.00 80 1019.0
20260830204233 69 195 1.0 2.0 0.00 0.00 0.00 81 1019.0
20260830203729 70 169 2.0 2.0 0.00 0.00 0.00 78 1019.0
20260830203225 70 230 1.0 1.0 0.00 0.00 0.00 76 1019.2
20260830202724 70 215 1.0 1.0 0.00 0.00 0.00 75 1019.2
20260830202220 71 256 1.0 1.0 0.00 0.00 0.00 74 1019.2
20260830201719 71 284 1.0 2.0 0.00 0.00 0.00 73 1019.3
20260830201214 71 281 4.0 5.0 0.00 0.00 0.00 72 1019.3
20260830200710 71 277 5.0 7.0 0.00 0.00 0.00 72 1019.1
20260830200209 72 283 3.0 5.0 0.00 0.00 0.00 71 1019.3
20260830195704 72 275 0.0 0.0 0.00 0.00 0.00 72 1019.0
20260830195202 72 280 3.0 3.0 0.00 0.00 0.00 71 1019.1
20260830194701 72 271 2.0 2.0 0.00 0.00 0.00 71 1019.1
20260830194155 73 322 5.0 7.0 0.00 0.00 0.00 70 1019.1
20260830193650 72 321 5.0 6.0 0.00 0.00 0.00 72 1019.1
20260830193145 72 322 6.0 8.0 0.00 0.00 0.00 74 1019.1
20260830192640 72 349 7.0 8.0 0.00 0.00 0.00 78 1019.1
20260830192135 73 274 2.0 2.0 0.00 0.00 0.00 77 1018.8
20260830191631 73 268 0.0 0.0 0.00 0.00 0.00 77 1018.8
20260830191126 74 356 1.0 2.0 0.00 0.00 0.00 73 1018.8
20260830190621 74 277 0.0 0.0 0.00 0.00 0.00 75 1018.9
20260830190115 74 267 0.0 0.0 0.00 0.00 0.00 71 1018.8
20260830185609 75 310 1.0 1.0 0.00 0.00 0.00 69 1019.0
20260830185105 75 316 2.0 2.0 0.00 0.00 0.00 69 1018.8
20260830184603 76 299 2.0 2.0 0.00 0.00 0.00 67 1018.8
20260830184059 77 292 3.0 3.0 0.00 0.00 0.00 64 1018.7
20260830183553 78 268 1.0 1.0 0.00 0.00 0.00 64 1018.7
20260830183049 77 255 0.0 0.0 0.00 0.00 0.00 65 1018.8
20260830182544 77 255 1.0 1.0 0.00 0.00 0.00 65 1018.8
20260830182040 77 262 1.0 1.0 0.00 0.00 0.00 64 1018.8
20260830181536 77 290 1.0 2.0 0.00 0.00 0.00 65 1018.9
20260830181035 76 266 1.0 1.0 0.00 0.00 0.00 65 1019.1
20260830180535 76 325 2.0 3.0 0.00 0.00 0.00 64 1019.0
20260830180034 77 318 2.0 2.0 0.00 0.00 0.00 66 1019.0
20260830175533 77 270 2.0 2.0 0.00 0.00 0.00 64 1019.2
20260830175029 77 242 1.0 1.0 0.00 0.00 0.00 64 1019.1
20260830174524 77 260 3.0 3.0 0.00 0.00 0.00 63 1019.1
20260830174019 78 255 3.0 3.0 0.00 0.00 0.00 62 1019.4
20260830173515 77 288 1.0 2.0 0.00 0.00 0.00 64 1019.1
20260830173010 77 268 1.0 1.0 0.00 0.00 0.00 65 1019.3
20260830172507 77 213 1.0 2.0 0.00 0.00 0.00 65 1019.3
20260830172003 76 222 4.0 5.0 0.00 0.00 0.00 68 1019.2
20260830171457 76 242 1.0 1.0 0.00 0.00 0.00 67 1019.3
20260830170957 75 209 6.0 7.0 0.00 0.00 0.00 69 1019.2
20260830170452 76 217 4.0 5.0 0.00 0.00 0.00 67 1019.4
20260830165950 76 223 4.0 5.0 0.00 0.00 0.00 67 1019.4
20260830165447 76 196 2.0 2.0 0.00 0.00 0.00 67 1019.4
20260830164942 76 192 2.0 2.0 0.00 0.00 0.00 67 1019.7
20260830164438 75 212 1.0 2.0 0.00 0.00 0.00 68 1019.4
20260830163934 75 234 1.0 2.0 0.00 0.00 0.00 67 1019.6
20260830163431 74 199 5.0 6.0 0.00 0.00 0.00 68 1019.8
20260830162930 75 214 6.0 7.0 0.00 0.00 0.00 68 1020.0
20260830162426 74 234 3.0 5.0 0.00 0.00 0.00 70 1019.8
20260830161925 73 214 7.0 8.0 0.00 0.00 0.00 70 1020.0
20260830161420 74 224 4.0 5.0 0.00 0.00 0.00 70 1020.3
20260830160915 73 196 6.0 7.0 0.00 0.00 0.00 71 1020.3
20260830160411 73 213 6.0 7.0 0.00 0.00 0.00 71 1020.2
20260830155905 73 234 1.0 2.0 0.00 0.00 0.00 70 1020.3
20260830155402 72 232 1.0 2.0 0.00 0.00 0.00 71 1020.2
20260830154851 72 226 1.0 2.0 0.00 0.00 0.00 69 1020.3
20260830154347 71 245 1.0 1.0 0.00 0.00 0.00 72 1020.6
20260830153844 71 202 7.0 8.0 0.00 0.00 0.00 73 1020.7
20260830153339 71 217 7.0 8.0 0.00 0.00 0.00 71 1020.7
20260830152837 70 210 3.0 3.0 0.00 0.00 0.00 74 1020.7
20260830152332 69 224 5.0 6.0 0.00 0.00 0.00 72 1020.6
20260830151827 69 231 2.0 3.0 0.00 0.00 0.00 75 1020.6
20260830151326 69 229 5.0 7.0 0.00 0.00 0.00 73 1020.7
20260830150821 68 232 3.0 3.0 0.00 0.00 0.00 74 1020.6
20260830150321 68 213 5.0 7.0 0.00 0.00 0.00 74 1020.7
20260830145815 68 221 4.0 5.0 0.00 0.00 0.00 73 1020.6
20260830145310 68 214 4.0 5.0 0.00 0.00 0.00 72 1020.9
20260830144806 68 299 2.0 2.0 0.00 0.00 0.00 73 1020.9
20260830144301 69 221 4.0 5.0 0.00 0.00 0.00 73 1021.1
20260830143757 69 251 1.0 3.0 0.00 0.00 0.00 72 1020.6
20260830143256 69 274 1.0 2.0 0.00 0.00 0.00 73 1020.8
20260830142751 69 262 2.0 2.0 0.00 0.00 0.00 74 1020.5
20260830142246 69 251 2.0 2.0 0.00 0.00 0.00 73 1020.4
20260830141741 68 254 1.0 2.0 0.00 0.00 0.00 75 1020.4
20260830141236 69 308 1.0 2.0 0.00 0.00 0.00 75 1020.4
20260830140731 68 215 1.0 2.0 0.00 0.00 0.00 78 1020.7
20260830140226 67 241 1.0 2.0 0.00 0.00 0.00 80 1020.7
20260830135720 66 191 1.0 2.0 0.00 0.00 0.00 83 1020.7
20260830135216 65 252 0.0 0.0 0.00 0.00 0.00 83 1020.8
20260830134712 65 261 0.0 1.0 0.00 0.00 0.00 83 1020.7
20260830134206 64 270 0.0 0.0 0.00 0.00 0.00 85 1020.9
20260830133702 64 273 0.0 1.0 0.00 0.00 0.00 86 1020.8
20260830133158 63 285 0.0 0.0 0.00 0.00 0.00 87 1021.0
20260830132653 62 255 0.0 1.0 0.00 0.00 0.00 88 1020.9
20260830132149 62 255 0.0 0.0 0.00 0.00 0.00 89 1021.1
20260830131648 62 214 1.0 1.0 0.00 0.00 0.00 89 1021.0